Weather in Tavtimanovo

Russia / Republic of Bashkortostan     54°53′15″N   56°38′41″E
temp.,
°C
wind,
m/s
gust,
m/s
humid.,
%
clouds,
%
prec.,
mm/h
press.,
hPa
HPBL,
m
26 january, tue
tue2623:00−3ssw41095100 0.5 1032477
02:00−2sw41095100 0.2 1032514
05:00−5ssw4994100 0.4 1032441
08:00−4ssw4994100 0.2 1031434
11:00−4ssw4993100 0.3 1031442
14:00−6ssw5991100 0.1 1031425
17:00−6ssw41093100 0.1 1031405
20:00−6ssw41293100 0.0 1031415
27 january, wed
wed2723:00−6ssw41292100 0.0 1030428
02:00−7ssw41394100 0.0 1031464
05:00−4ssw51392100 0.1 1031605
08:00−3sw51092100 0.1 1030736
11:00−2sw51091100 0.1 1030816
14:00−2ssw51089100 0.1 1030797
17:00−1ssw51190100 0.1 1030748
20:00−3ssw51391100 0.0 1030605
28 january, thu
thu2823:00−5ssw41393100 0.0 1028459
02:00−5s51589100 0.0 1028467
05:00−6s51588100 0.0 1027493
08:00−7s41688100 0.0 1027456
11:00−6ssw51483100 0.0 1026513
14:00−4ssw61478100 0.0 1025572
17:00−5ssw41382100 0.0 1024494
20:00−7ssw31286100 0.0 1025349
29 january, fri
fri2923:00−8ssw2888100 0.0 1024238
02:00−8s2289100 0.0 102462
05:00−8sse1288100 0.0 102321
08:00−7e1285100 0.0 102221
11:00−4e1282100 0.0 102158
14:00+1e2584100 0.0 1018168
17:000e2383100 0.0 101640
20:00−2e3479100 0.0 101482
30 january, sat
sat3023:00−2s2378100 0.0 101352
02:00−2sse21197100 0.9 1013511
05:00−3s2886100 0.9 1012331
08:00−5se2496100 0.1 1013127
11:00−3sse3696100 0.4 1014334
14:00−2sse2494100 0.1 1013354
17:00−2sse2396100 0.2 1014252
20:00−4se1196100 0.0 101422